Photometre #14[NE_1.6] AgiaMarina_Xyliatou AOT

File : 20200926_14.hum

26/09/2020,04:23:19,TEMP=21.9,BA=5.60,STAT.A=5.0,ExtBa=13.20
26/09/2020,04:26:27,TEMP=22.3,BA=5.60,STAT.A=5.0,ExtBa=13.10
26/09/2020,04:30:07,TEMP=22.5,BA=5.48,STAT.A=5.0,ExtBa=13.10
26/09/2020,04:34:29,TEMP=22.7,BA=5.48,STAT.A=5.0,ExtBa=13.20
26/09/2020,04:39:44,TEMP=23.0,BA=5.48,STAT.A=5.0,ExtBa=13.20
26/09/2020,04:46:12,TEMP=23.3,BA=5.48,STAT.A=5.0,ExtBa=13.10
26/09/2020,04:54:22,TEMP=23.5,BA=5.60,STAT.B=5.0,ExtBa=13.10
26/09/2020,05:06:05,TEMP=24.5,BA=5.48,STAT.A=5.0,ExtBa=12.90
26/09/2020,05:08:14,TEMP=24.7,BA=5.48,STAT.A=5.0,ExtBa=12.90
26/09/2020,05:10:20,TEMP=24.8,BA=5.48,STAT.A=5.0,ExtBa=12.90
26/09/2020,05:13:08,TEMP=24.8,BA=5.48,STAT.A=5.0,ExtBa=13.00
26/09/2020,05:19:31,TEMP=24.8,BA=5.48,STAT.C=5.0,ExtBa=13.00
26/09/2020,05:37:29,TEMP=26.5,BA=5.40,STAT.A=5.0,ExtBa=13.00
26/09/2020,05:39:33,TEMP=26.7,BA=5.40,STAT.A=5.0,ExtBa=13.00
26/09/2020,05:46:02,TEMP=26.9,BA=5.44,STAT.A=5.0,ExtBa=13.00
26/09/2020,05:58:44,TEMP=28.1,BA=5.52,STAT.A=5.0,ExtBa=13.00
26/09/2020,06:14:38,TEMP=29.1,BA=5.56,STAT.B=5.0,ExtBa=13.10
26/09/2020,06:25:24,TEMP=29.8,BA=5.44,STAT.D=5.0,ExtBa=12.90
26/09/2020,06:39:29,TEMP=30.1,BA=5.48,STAT.F,ExtBa=13.10
26/09/2020,06:56:25,TEMP=31.1,BA=5.40,STAT.b=5.0
26/09/2020,07:09:26,TEMP=30.7,BA=5.48,STAT.D=5.0,ExtBa=13.00
26/09/2020,07:24:28,TEMP=31.2,BA=5.48,STAT.D=5.0,ExtBa=13.20
26/09/2020,07:56:26,TEMP=32.8,BA=5.40,STAT.b=5.0
26/09/2020,08:09:27,TEMP=32.4,BA=5.44,STAT.D=5.0,ExtBa=13.20
26/09/2020,08:24:28,TEMP=32.9,BA=5.44,STAT.D=5.0,ExtBa=13.10
26/09/2020,08:56:34,TEMP=33.7,BA=5.32,STAT.b=5.0
26/09/2020,09:09:27,TEMP=33.0,BA=5.40,STAT.D=5.0,ExtBa=13.10
26/09/2020,09:24:28,TEMP=33.3,BA=5.40,STAT.D=5.0,ExtBa=13.00
26/09/2020,09:39:30,TEMP=33.2,BA=5.40,STAT.F,ExtBa=13.20
26/09/2020,09:54:39,TEMP=33.9,BA=5.36,STAT.b=5.0
26/09/2020,10:09:27,TEMP=33.5,BA=5.40,STAT.D=5.0,ExtBa=13.10
26/09/2020,10:24:28,TEMP=33.5,BA=5.36,STAT.D=5.0,ExtBa=13.10
26/09/2020,10:39:29,TEMP=34.1,BA=5.36,STAT.F,ExtBa=13.00
26/09/2020,10:54:38,TEMP=34.8,BA=5.36,STAT.b=5.0
26/09/2020,11:09:27,TEMP=33.7,BA=5.36,STAT.D=5.0,ExtBa=13.00
26/09/2020,11:24:28,TEMP=33.6,BA=5.36,STAT.D=5.0,ExtBa=13.00
26/09/2020,11:39:29,TEMP=33.6,BA=5.36,STAT.F,ExtBa=13.00
26/09/2020,11:56:33,TEMP=34.1,BA=5.28,STAT.D=5.0,ExtBa=12.90
26/09/2020,12:09:27,TEMP=34.0,BA=5.36,STAT.D=5.0,ExtBa=12.90
26/09/2020,12:24:27,TEMP=33.8,BA=5.36,STAT.D=5.0,ExtBa=13.00
26/09/2020,12:56:43,TEMP=33.6,BA=5.28,STAT.b=5.0
26/09/2020,13:04:19,TEMP=32.8,BA=5.36,STAT.B=5.0,ExtBa=12.90
26/09/2020,13:20:13,TEMP=32.3,BA=5.32,STAT.A=5.0,ExtBa=13.00
26/09/2020,13:32:54,TEMP=32.0,BA=5.36,STAT.A=5.0,ExtBa=13.00
26/09/2020,13:43:17,TEMP=31.7,BA=5.36,STAT.A=5.0,ExtBa=13.00
26/09/2020,13:52:00,TEMP=31.4,BA=5.36,STAT.A=5.0,ExtBa=13.00
26/09/2020,13:59:25,TEMP=30.8,BA=5.36,STAT.C=5.0,ExtBa=12.90
26/09/2020,14:17:19,TEMP=29.9,BA=5.28,STAT.A=5.0,ExtBa=12.90
26/09/2020,14:19:29,TEMP=30.0,BA=5.28,STAT.A=5.0,ExtBa=12.80
26/09/2020,14:21:33,TEMP=29.9,BA=5.28,STAT.A=5.0,ExtBa=12.80
26/09/2020,14:23:36,TEMP=29.7,BA=5.28,STAT.A=5.0,ExtBa=12.80
26/09/2020,14:25:39,TEMP=29.6,BA=5.28,STAT.B=5.0,ExtBa=12.80
26/09/2020,14:36:53,TEMP=28.7,BA=5.28,STAT.A=5.0,ExtBa=12.80
26/09/2020,14:39:12,TEMP=28.8,BA=5.28,STAT.A=5.0,ExtBa=12.80
26/09/2020,14:44:27,TEMP=28.3,BA=5.28,STAT.A=5.0,ExtBa=12.80
26/09/2020,14:48:49,TEMP=28.2,BA=5.28,STAT.A=5.0,ExtBa=12.90
26/09/2020,14:52:29,TEMP=28.0,BA=5.32,STAT.A=5.0,ExtBa=12.90
26/09/2020,14:55:37,TEMP=28.0,BA=5.32,STAT.A=5.0,ExtBa=12.90